Powrót do katalogu

TIANQI 21

AktywnyŁącznośćLEO
NORAD 57792·PAYLOAD·🇨🇳 China

Wystrzelony Sep 5, 2023 z Yellow Sea Launch Area

Loading…

Następne Przeloty (najbliższe 24 godziny)

TLE

ŚwieżeSource: Space-Track

Epoka: Sep 14, 2026, 14:08 UTC

1 57792U 23135A   26257.58957007 -.00000074  00000-0  37393-4 0  9998
2 57792  49.9711 136.1390 0012868 208.8186 151.2017 14.23161659157361

Śledź TIANQI 21 w czasie rzeczywistym z AllMySat

Download on the App Store